Snowfall_Accumulation
0.0 0.2 0.2 0.3 0.1 0.0 0.0 0.0 0.0 0.0 0.0 0.0 0.0 0.0 0.0 0.0 0.0 0.0 0.0 0.0 0.0 0.0 0.0 0.0 0.0 0.0 0.0
0.1 0.9 1.6 1.0 0.4 0.1 0.0 0.0 0.0 0.0 0.0 0.0 0.0 0.0 0.0 0.0 0.0 0.0 0.0 0.0 0.0 0.0 0.0 0.0 0.0 0.0 0.0
0.5 0.9 0.5 0.2 0.1 0.1 0.0 0.0 0.0 0.0 0.0 0.0 0.0 0.0 0.0 0.0 0.0 0.0 0.0 0.0 0.0 0.0 0.0 0.0 0.0 0.0 0.0
0.3 0.8 0.7 0.2 0.2 0.1 0.1 0.0 0.0 0.0 0.0 0.0 0.0 0.0 0.0 0.0 0.0 0.0 0.0 0.0 0.0 0.0 0.0 0.0 0.0 0.0 0.0
2.0 1.3 0.4 0.1 0.1 0.0 0.0 0.0 0.2 0.0 0.0 0.0 0.0 0.0 0.0 0.0 0.0 0.0 0.0 0.0 0.0 0.0 0.0 0.0 0.0 0.0 0.0
3.7 0.5 0.0 0.0 0.0 0.0 1.8 1.2 1.2 0.0 0.1 0.1 0.0 0.0 0.0 0.0 0.0 0.0 0.0 0.0 0.0 0.0 0.0 0.0 0.0 0.0 0.0
0.1 0.0 0.1 0.2 2.4 2.6 0.7 1.4 1.1 0.0 0.2 0.6 0.0 0.0 0.0 0.0 0.0 0.0 0.0 0.0 0.0 0.0 0.0 0.0 0.0 0.0 0.0
0.0 0.1 0.5 0.3 0.3 1.4 1.5 0.9 0.3 0.1 0.1 2.0 0.1 0.1 0.0 0.0 0.0 0.0 0.0 0.0 0.0 0.0 0.0 0.0 0.0 0.0 0.0
0.2 0.1 0.0 0.0 0.0 1.0 2.1 2.5 1.7 0.0 0.0 0.8 0.2 0.0 0.0 0.0 0.0 0.0 0.0 0.0 0.0 0.0 0.0 0.0 0.0 0.0 0.0
0.0 0.0 0.0 0.0 0.0 0.1 2.3 8.7 4.1 3.5 0.0 3.9 1.1 1.2 7.0 0.5 0.0 0.0 0.0 0.0 0.0 0.0 0.0 0.0 0.0 0.3 0.6
0.0 0.0 0.0 0.0 0.1 0.1 0.7 6.5 12.0 8.1 0.0 7.6 10.2 3.9 9.9 5.5 2.2 2.0 0.0 0.0 0.9 0.7 0.3 0.6 0.6 0.7 2.6
0.0 0.1 0.2 0.2 0.1 0.1 0.2 0.7 1.6 6.2 2.0 3.9 18.3 7.4 14.0 9.9 3.0 2.0 2.4 2.6 3.6 6.4 6.5 3.6 1.2 0.8 0.5
0.4 0.3 0.2 0.1 0.2 0.3 0.0 0.0 0.0 1.8 2.3 3.1 7.8 8.5 11.2 10.7 6.2 2.5 4.3 1.7 5.5 8.0 5.4 4.3 4.0 3.2 3.7
2.2 1.4 1.4 2.1 3.1 2.9 4.7 3.0 5.2 3.5 3.5 3.9 5.7 7.8 10.3 4.1 6.8 4.4 3.8 7.7 4.4 5.2 4.3 3.2 2.0 2.1 2.6
4.4 5.7 4.6 3.9 3.3 3.3 4.6 5.7 7.4 4.1 4.8 5.0 4.3 4.8 4.2 4.4 7.4 3.0 4.0 4.6 5.8 6.9 5.4 4.7 4.1 3.8 1.8
5.4 5.9 7.7 6.7 5.9 4.9 4.8 6.8 7.5 4.6 5.0 4.9 6.6 6.9 4.7 2.5 2.8 7.1 5.2 5.5 6.2 6.0 5.6 8.3 6.2 5.5 0.3
6.6 6.8 7.8 7.5 6.6 6.6 5.7 5.9 5.2 4.0 4.3 5.2 7.5 11.5 14.8 6.3 3.4 3.3 12.3 9.0 5.8 5.3 4.5 5.1 7.7 6.1 1.1